Time,TemperatureF,DewpointF,PressureIn,WindDirection,WindDirectionDegrees,WindSpeedMPH,WindSpeedGustMPH,Humidity,HourlyPrecipIn,Conditions,Clouds,dailyrainin,SoftwareType,DateUTC
2013-07-30 00:07:00,54.5,48.0,30.12,SE,131,0.0,0.0,80,0.00,,,0.00,weatherlink.com 1.10,2013-07-30 04:07:00,
2013-07-30 00:22:00,54.7,48.0,30.12,SE,131,0.0,0.0,79,0.00,,,0.00,weatherlink.com 1.10,2013-07-30 04:22:00,
2013-07-30 00:37:00,55.0,49.0,30.12,SE,131,0.0,0.0,81,0.00,,,0.00,weatherlink.com 1.10,2013-07-30 04:37:00,
2013-07-30 00:52:00,55.6,51.0,30.13,SE,131,0.0,0.0,83,0.00,,,0.00,weatherlink.com 1.10,2013-07-30 04:52:00,
2013-07-30 01:07:00,55.2,50.0,30.12,SE,131,0.0,0.0,82,0.00,,,0.00,weatherlink.com 1.10,2013-07-30 05:07:00,
2013-07-30 01:22:00,55.0,50.0,30.12,SE,131,0.0,0.0,83,0.00,,,0.00,weatherlink.com 1.10,2013-07-30 05:22:00,
2013-07-30 01:37:00,54.8,50.0,30.12,SE,131,0.0,0.0,84,0.00,,,0.00,weatherlink.com 1.10,2013-07-30 05:37:00,
2013-07-30 01:52:00,55.0,50.0,30.11,SE,131,0.0,0.0,84,0.00,,,0.00,weatherlink.com 1.10,2013-07-30 05:52:00,
2013-07-30 02:07:00,55.2,50.0,30.11,SE,130,0.0,1.0,83,0.00,,,0.00,weatherlink.com 1.10,2013-07-30 06:07:00,
2013-07-30 02:22:00,55.3,50.0,30.11,SE,130,0.0,1.0,83,0.00,,,0.00,weatherlink.com 1.10,2013-07-30 06:22:00,
2013-07-30 02:37:00,55.4,51.0,30.10,ESE,109,0.0,3.0,84,0.00,,,0.00,weatherlink.com 1.10,2013-07-30 06:37:00,
2013-07-30 02:52:00,55.9,51.0,30.10,ESE,123,0.0,3.0,84,0.00,,,0.00,weatherlink.com 1.10,2013-07-30 06:52:00,
2013-07-30 03:22:00,56.0,51.0,30.10,SE,130,0.0,4.0,84,0.00,,,0.00,weatherlink.com 1.10,2013-07-30 07:22:00,
2013-07-30 03:37:00,55.5,52.0,30.10,SE,124,2.0,4.0,87,0.00,,,0.00,weatherlink.com 1.10,2013-07-30 07:37:00,
2013-07-30 03:52:00,55.2,52.0,30.10,ESE,105,2.0,4.0,89,0.00,,,0.00,weatherlink.com 1.10,2013-07-30 07:52:00,
2013-07-30 04:08:00,54.8,52.0,30.10,ESE,111,0.0,3.0,91,0.00,,,0.00,weatherlink.com 1.10,2013-07-30 08:08:00,
2013-07-30 04:23:00,54.6,52.0,30.10,East,97,1.0,4.0,91,0.00,,,0.00,weatherlink.com 1.10,2013-07-30 08:23:00,
2013-07-30 04:38:00,54.1,52.0,30.09,ESE,121,0.0,4.0,92,0.00,,,0.00,weatherlink.com 1.10,2013-07-30 08:38:00,
2013-07-30 04:53:00,53.6,52.0,30.10,ESE,120,0.0,2.0,93,0.00,,,0.00,weatherlink.com 1.10,2013-07-30 08:53:00,
2013-07-30 05:08:00,54.0,52.0,30.10,ESE,113,0.0,1.0,93,0.00,,,0.00,weatherlink.com 1.10,2013-07-30 09:08:00,
2013-07-30 05:23:00,54.6,53.0,30.11,ESE,120,0.0,2.0,93,0.00,,,0.00,weatherlink.com 1.10,2013-07-30 09:23:00,
2013-07-30 05:38:00,54.4,52.0,30.11,ESE,117,0.0,2.0,92,0.00,,,0.00,weatherlink.com 1.10,2013-07-30 09:38:00,
2013-07-30 05:53:00,54.2,52.0,30.11,ESE,106,0.0,2.0,92,0.00,,,0.00,weatherlink.com 1.10,2013-07-30 09:53:00,
2013-07-30 06:08:00,53.9,51.0,30.11,ESE,105,1.0,2.0,91,0.00,,,0.00,weatherlink.com 1.10,2013-07-30 10:08:00,
2013-07-30 06:23:00,54.0,52.0,30.12,ESE,105,0.0,2.0,91,0.00,,,0.00,weatherlink.com 1.10,2013-07-30 10:23:00,
2013-07-30 06:38:00,54.1,52.0,30.12,ENE,78,1.0,1.0,92,0.00,,,0.00,weatherlink.com 1.10,2013-07-30 10:38:00,
2013-07-30 06:53:00,53.7,52.0,30.12,ENE,78,0.0,1.0,92,0.00,,,0.00,weatherlink.com 1.10,2013-07-30 10:53:00,
2013-07-30 07:08:00,54.0,52.0,30.12,ENE,78,0.0,0.0,93,0.00,,,0.00,weatherlink.com 1.10,2013-07-30 11:08:00,
2013-07-30 07:23:00,54.4,53.0,30.13,East,94,0.0,1.0,93,0.00,,,0.00,weatherlink.com 1.10,2013-07-30 11:23:00,
2013-07-30 07:38:00,55.6,53.0,30.13,East,90,0.0,2.0,92,0.00,,,0.00,weatherlink.com 1.10,2013-07-30 11:38:00,
2013-07-30 07:53:00,56.4,54.0,30.13,ESE,110,0.0,1.0,90,0.00,,,0.00,weatherlink.com 1.10,2013-07-30 11:53:00,
2013-07-30 08:08:00,56.7,54.0,30.14,East,88,0.0,2.0,90,0.00,,,0.00,weatherlink.com 1.10,2013-07-30 12:08:00,
2013-07-30 08:23:00,56.6,54.0,30.14,East,80,0.0,1.0,90,0.00,,,0.00,weatherlink.com 1.10,2013-07-30 12:23:00,
2013-07-30 08:38:00,56.9,54.0,30.14,East,79,0.0,2.0,91,0.00,,,0.00,weatherlink.com 1.10,2013-07-30 12:38:00,
2013-07-30 08:53:00,58.0,55.0,30.15,ENE,67,0.0,3.0,90,0.00,,,0.00,weatherlink.com 1.10,2013-07-30 12:53:00,
2013-07-30 09:08:00,59.1,56.0,30.15,NE,51,0.0,1.0,90,0.00,,,0.00,weatherlink.com 1.10,2013-07-30 13:08:00,
2013-07-30 09:38:00,60.7,58.0,30.14,ENE,73,1.0,4.0,90,0.00,,,0.00,weatherlink.com 1.10,2013-07-30 13:38:00,
2013-07-30 09:53:00,61.4,58.0,30.14,ENE,60,0.0,3.0,88,0.00,,,0.00,weatherlink.com 1.10,2013-07-30 13:53:00,
2013-07-30 10:08:00,61.1,58.0,30.13,ENE,65,0.0,2.0,88,0.00,,,0.00,weatherlink.com 1.10,2013-07-30 14:08:00,
2013-07-30 10:23:00,61.8,59.0,30.13,North,351,0.0,3.0,90,0.00,,,0.00,weatherlink.com 1.10,2013-07-30 14:23:00,
2013-07-30 10:38:00,62.7,59.0,30.13,South,190,0.0,4.0,87,0.00,,,0.00,weatherlink.com 1.10,2013-07-30 14:38:00,
2013-07-30 10:53:00,63.3,59.0,30.13,ENE,61,1.0,3.0,85,0.00,,,0.00,weatherlink.com 1.10,2013-07-30 14:53:00,
2013-07-30 11:08:00,64.2,60.0,30.12,NE,55,0.0,3.0,85,0.00,,,0.00,weatherlink.com 1.10,2013-07-30 15:08:00,
2013-07-30 11:23:00,64.4,59.0,30.12,NE,45,0.0,4.0,83,0.00,,,0.00,weatherlink.com 1.10,2013-07-30 15:23:00,
2013-07-30 11:38:00,64.7,59.0,30.12,NE,50,0.0,5.0,82,0.00,,,0.00,weatherlink.com 1.10,2013-07-30 15:38:00,
2013-07-30 11:53:00,64.4,59.0,30.12,ENE,65,2.0,3.0,82,0.00,,,0.00,weatherlink.com 1.10,2013-07-30 15:53:00,
2013-07-30 12:08:00,64.7,59.0,30.12,WNW,298,0.0,3.0,81,0.00,,,0.00,weatherlink.com 1.10,2013-07-30 16:08:00,
2013-07-30 12:23:00,64.8,59.0,30.12,NE,53,0.0,6.0,82,0.00,,,0.00,weatherlink.com 1.10,2013-07-30 16:23:00,
2013-07-30 12:38:00,64.8,59.0,30.12,East,88,0.0,3.0,81,0.00,,,0.00,weatherlink.com 1.10,2013-07-30 16:38:00,
2013-07-30 12:53:00,64.5,59.0,30.12,ENE,67,0.0,4.0,82,0.00,,,0.00,weatherlink.com 1.10,2013-07-30 16:53:00,
2013-07-30 13:08:00,64.5,59.0,30.12,West,262,0.0,3.0,82,0.00,,,0.00,weatherlink.com 1.10,2013-07-30 17:08:00,
2013-07-30 13:23:00,64.9,59.0,30.11,East,98,0.0,5.0,82,0.00,,,0.00,weatherlink.com 1.10,2013-07-30 17:23:00,
2013-07-30 13:38:00,64.7,59.0,30.11,ENE,72,1.0,4.0,81,0.00,,,0.00,weatherlink.com 1.10,2013-07-30 17:38:00,
2013-07-30 13:53:00,64.5,59.0,30.11,ESE,104,0.0,2.0,83,0.00,,,0.00,weatherlink.com 1.10,2013-07-30 17:53:00,
2013-07-30 14:08:00,64.2,59.0,30.11,East,100,0.0,3.0,83,0.00,,,0.00,weatherlink.com 1.10,2013-07-30 18:08:00,
2013-07-30 14:23:00,63.9,59.0,30.10,East,99,0.0,1.0,85,0.00,,,0.00,weatherlink.com 1.10,2013-07-30 18:23:00,
2013-07-30 14:38:00,64.5,59.0,30.10,East,88,0.0,2.0,83,0.00,,,0.00,weatherlink.com 1.10,2013-07-30 18:38:00,
2013-07-30 14:53:00,64.6,60.0,30.10,East,86,0.0,2.0,85,0.00,,,0.00,weatherlink.com 1.10,2013-07-30 18:53:00,
2013-07-30 15:08:00,64.0,60.0,30.10,East,92,0.0,2.0,86,0.00,,,0.00,weatherlink.com 1.10,2013-07-30 19:08:00,
2013-07-30 15:24:00,63.6,60.0,30.10,East,86,0.0,1.0,87,0.00,,,0.00,weatherlink.com 1.10,2013-07-30 19:24:00,
2013-07-30 15:39:00,63.8,60.0,30.10,ENE,76,0.0,2.0,87,0.00,,,0.00,weatherlink.com 1.10,2013-07-30 19:39:00,
2013-07-30 15:54:00,64.5,60.0,30.10,SSE,149,0.0,3.0,86,0.00,,,0.00,weatherlink.com 1.10,2013-07-30 19:54:00,
2013-07-30 16:09:00,64.7,61.0,30.10,NW,326,0.0,2.0,86,0.00,,,0.00,weatherlink.com 1.10,2013-07-30 20:09:00,
2013-07-30 16:24:00,64.6,60.0,30.10,East,95,0.0,2.0,86,0.00,,,0.00,weatherlink.com 1.10,2013-07-30 20:24:00,
2013-07-30 16:39:00,64.3,60.0,30.10,ESE,106,0.0,3.0,87,0.00,,,0.00,weatherlink.com 1.10,2013-07-30 20:39:00,
2013-07-30 16:54:00,64.5,60.0,30.10,ESE,106,0.0,1.0,86,0.00,,,0.00,weatherlink.com 1.10,2013-07-30 20:54:00,
2013-07-30 17:09:00,64.1,60.0,30.10,NE,39,0.0,2.0,86,0.00,,,0.00,weatherlink.com 1.10,2013-07-30 21:09:00,
2013-07-30 17:24:00,63.8,60.0,30.10,East,81,0.0,3.0,86,0.00,,,0.00,weatherlink.com 1.10,2013-07-30 21:24:00,
2013-07-30 17:39:00,63.3,60.0,30.10,NE,39,0.0,2.0,89,0.00,,,0.00,weatherlink.com 1.10,2013-07-30 21:39:00,
2013-07-30 17:54:00,63.7,60.0,30.09,WSW,254,0.0,2.0,88,0.00,,,0.00,weatherlink.com 1.10,2013-07-30 21:54:00,
2013-07-30 18:09:00,63.5,60.0,30.09,WNW,285,0.0,2.0,87,0.00,,,0.00,weatherlink.com 1.10,2013-07-30 22:09:00,
2013-07-30 18:24:00,63.4,60.0,30.09,NE,48,0.0,0.0,89,0.00,,,0.00,weatherlink.com 1.10,2013-07-30 22:24:00,
2013-07-30 18:39:00,62.9,61.0,30.09,NE,45,0.0,0.0,92,0.00,,,0.00,weatherlink.com 1.10,2013-07-30 22:39:00,
2013-07-30 18:54:00,62.5,61.0,30.09,NE,42,0.0,0.0,93,0.00,,,0.00,weatherlink.com 1.10,2013-07-30 22:54:00,
2013-07-30 19:09:00,61.7,59.0,30.09,ENE,69,0.0,0.0,92,0.00,,,0.00,weatherlink.com 1.10,2013-07-30 23:09:00,
2013-07-30 19:24:00,61.3,59.0,30.09,ENE,67,0.0,0.0,92,0.00,,,0.00,weatherlink.com 1.10,2013-07-30 23:24:00,
2013-07-30 19:39:00,60.9,58.0,30.09,ENE,66,0.0,1.0,91,0.00,,,0.00,weatherlink.com 1.10,2013-07-30 23:39:00,
2013-07-30 19:54:00,60.7,58.0,30.09,ENE,66,0.0,0.0,92,0.00,,,0.00,weatherlink.com 1.10,2013-07-30 23:54:00,
2013-07-30 20:09:00,60.5,58.0,30.09,ENE,66,0.0,0.0,92,0.00,,,0.00,weatherlink.com 1.10,2013-07-31 00:09:00,
2013-07-30 20:24:00,60.2,58.0,30.09,ENE,66,0.0,0.0,93,0.00,,,0.00,weatherlink.com 1.10,2013-07-31 00:24:00,
2013-07-30 20:39:00,59.8,58.0,30.09,ENE,66,0.0,0.0,94,0.00,,,0.00,weatherlink.com 1.10,2013-07-31 00:39:00,
2013-07-30 20:54:00,59.7,58.0,30.09,ENE,66,0.0,0.0,95,0.00,,,0.00,weatherlink.com 1.10,2013-07-31 00:54:00,
2013-07-30 21:09:00,59.7,59.0,30.09,ENE,66,0.0,0.0,96,0.00,,,0.00,weatherlink.com 1.10,2013-07-31 01:09:00,
2013-07-30 21:24:00,59.6,59.0,30.09,ENE,66,0.0,0.0,96,0.00,,,0.00,weatherlink.com 1.10,2013-07-31 01:24:00,
2013-07-30 21:39:00,59.5,59.0,30.10,ENE,67,0.0,1.0,97,0.00,,,0.00,weatherlink.com 1.10,2013-07-31 01:39:00,
2013-07-30 21:54:00,59.3,59.0,30.10,ENE,67,0.0,1.0,97,0.00,,,0.00,weatherlink.com 1.10,2013-07-31 01:54:00,
2013-07-30 22:09:00,59.2,58.0,30.11,ENE,75,0.0,3.0,97,0.00,,,0.00,weatherlink.com 1.10,2013-07-31 02:09:00,
2013-07-30 22:24:00,58.9,58.0,30.12,ENE,75,0.0,0.0,97,0.00,,,0.00,weatherlink.com 1.10,2013-07-31 02:24:00,
2013-07-30 22:39:00,58.8,58.0,30.12,ENE,75,0.0,1.0,97,0.00,,,0.00,weatherlink.com 1.10,2013-07-31 02:39:00,
2013-07-30 22:54:00,58.6,58.0,30.12,East,92,0.0,3.0,97,0.00,,,0.00,weatherlink.com 1.10,2013-07-31 02:54:00,
2013-07-30 23:10:00,58.8,58.0,30.11,East,82,0.0,2.0,98,0.00,,,0.00,weatherlink.com 1.10,2013-07-31 03:10:00,
2013-07-30 23:24:00,58.9,58.0,30.11,NE,50,0.0,2.0,98,0.00,,,0.00,weatherlink.com 1.10,2013-07-31 03:24:00,
2013-07-30 23:39:00,59.0,59.0,30.11,East,84,0.0,2.0,98,0.00,,,0.00,weatherlink.com 1.10,2013-07-31 03:39:00,
2013-07-30 23:54:00,59.1,59.0,30.11,ENE,77,1.0,2.0,98,0.00,,,0.00,weatherlink.com 1.10,2013-07-31 03:54:00,